| time (UTC) | temp C | wind direction | speed KPH | gust KPH | rain 1hr cm | rain 24hr cm | rain mn cm | humidity % | barometer mb |
| 20260901225237 | 13 | 193 | 0.0 | 0.0 | 0.00 | 0.00 | 0.00 | 82 | 1020.9 |
| 20260901224737 | 13 | 193 | 0.0 | 1.6 | 0.00 | 0.00 | 0.00 | 82 | 1020.9 |
| 20260901224237 | 13 | 194 | 1.6 | 1.6 | 0.00 | 0.00 | 0.00 | 82 | 1020.9 |
| 20260901223737 | 14 | 194 | 0.0 | 1.6 | 0.00 | 0.00 | 0.00 | 82 | 1020.8 |
| 20260901223237 | 14 | 176 | 0.0 | 1.6 | 0.00 | 0.00 | 0.00 | 82 | 1020.8 |
| 20260901222739 | 14 | 175 | 0.0 | 1.6 | 0.00 | 0.00 | 0.00 | 82 | 1020.7 |
| 20260901222238 | 14 | 158 | 0.0 | 0.0 | 0.00 | 0.00 | 0.00 | 81 | 1020.7 |
| 20260901221739 | 14 | 158 | 0.0 | 0.0 | 0.00 | 0.00 | 0.00 | 81 | 1020.8 |
| 20260901221238 | 14 | 158 | 0.0 | 1.6 | 0.00 | 0.00 | 0.00 | 81 | 1020.7 |
| 20260901220739 | 14 | 158 | 1.6 | 3.2 | 0.00 | 0.00 | 0.00 | 81 | 1020.7 |
| 20260901220238 | 14 | 123 | 0.0 | 1.6 | 0.00 | 0.00 | 0.00 | 81 | 1020.7 |
| 20260901215738 | 14 | 82 | 1.6 | 3.2 | 0.00 | 0.00 | 0.00 | 81 | 1020.7 |
| 20260901215239 | 14 | 119 | 1.6 | 4.8 | 0.00 | 0.00 | 0.00 | 81 | 1020.7 |
| 20260901214739 | 14 | 113 | 0.0 | 4.8 | 0.00 | 0.00 | 0.00 | 81 | 1020.7 |
| 20260901214238 | 15 | 103 | 0.0 | 4.8 | 0.00 | 0.00 | 0.00 | 80 | 1020.7 |
| 20260901213738 | 15 | 146 | 0.0 | 1.6 | 0.00 | 0.00 | 0.00 | 80 | 1020.8 |
| 20260901213238 | 15 | 146 | 0.0 | 1.6 | 0.00 | 0.00 | 0.00 | 80 | 1020.8 |
| 20260901212739 | 15 | 146 | 0.0 | 0.0 | 0.00 | 0.00 | 0.00 | 79 | 1020.7 |
| 20260901212239 | 15 | 146 | 0.0 | 0.0 | 0.00 | 0.00 | 0.00 | 79 | 1020.7 |
| 20260901211738 | 15 | 145 | 0.0 | 0.0 | 0.00 | 0.00 | 0.00 | 79 | 1020.7 |
| 20260901211237 | 15 | 145 | 1.6 | 1.6 | 0.00 | 0.00 | 0.00 | 78 | 1020.7 |
| 20260901210739 | 15 | 145 | 0.0 | 1.6 | 0.00 | 0.00 | 0.00 | 78 | 1020.8 |
| 20260901210238 | 15 | 145 | 0.0 | 0.0 | 0.00 | 0.00 | 0.00 | 77 | 1020.7 |
| 20260901205737 | 15 | 145 | 0.0 | 1.6 | 0.00 | 0.00 | 0.00 | 77 | 1020.7 |
| 20260901205237 | 15 | 145 | 0.0 | 1.6 | 0.00 | 0.00 | 0.00 | 77 | 1020.7 |
| 20260901204737 | 15 | 145 | 1.6 | 3.2 | 0.00 | 0.00 | 0.00 | 77 | 1020.7 |
| 20260901204238 | 15 | 145 | 0.0 | 1.6 | 0.00 | 0.00 | 0.00 | 77 | 1020.8 |
| 20260901203737 | 16 | 145 | 0.0 | 1.6 | 0.00 | 0.00 | 0.00 | 76 | 1020.8 |
| 20260901203239 | 16 | 145 | 0.0 | 1.6 | 0.00 | 0.00 | 0.00 | 75 | 1020.8 |
| 20260901202739 | 16 | 145 | 0.0 | 1.6 | 0.00 | 0.00 | 0.00 | 75 | 1020.7 |
| 20260901202239 | 16 | 145 | 0.0 | 1.6 | 0.00 | 0.00 | 0.00 | 75 | 1020.7 |
| 20260901201739 | 16 | 145 | 0.0 | 1.6 | 0.00 | 0.00 | 0.00 | 74 | 1020.7 |
| 20260901201239 | 16 | 145 | 0.0 | 3.2 | 0.00 | 0.00 | 0.00 | 74 | 1020.7 |
| 20260901200738 | 16 | 144 | 1.6 | 3.2 | 0.00 | 0.00 | 0.00 | 74 | 1020.7 |
| 20260901200239 | 16 | 152 | 0.0 | 1.6 | 0.00 | 0.00 | 0.00 | 73 | 1020.6 |
| 20260901195738 | 17 | 159 | 1.6 | 3.2 | 0.00 | 0.00 | 0.00 | 73 | 1020.5 |
| 20260901195239 | 17 | 148 | 0.0 | 3.2 | 0.00 | 0.00 | 0.00 | 72 | 1020.6 |
| 20260901194739 | 17 | 150 | 0.0 | 3.2 | 0.00 | 0.00 | 0.00 | 72 | 1020.6 |
| 20260901194239 | 17 | 148 | 1.6 | 1.6 | 0.00 | 0.00 | 0.00 | 71 | 1020.6 |
| 20260901193739 | 17 | 150 | 1.6 | 3.2 | 0.00 | 0.00 | 0.00 | 71 | 1020.6 |
| 20260901193239 | 17 | 138 | 0.0 | 1.6 | 0.00 | 0.00 | 0.00 | 70 | 1020.5 |
| 20260901192738 | 18 | 138 | 0.0 | 3.2 | 0.00 | 0.00 | 0.00 | 69 | 1020.6 |
| 20260901192239 | 18 | 144 | 1.6 | 3.2 | 0.00 | 0.00 | 0.00 | 69 | 1020.5 |
| 20260901191737 | 18 | 142 | 1.6 | 3.2 | 0.00 | 0.00 | 0.00 | 69 | 1020.6 |
| 20260901191237 | 18 | 101 | 3.2 | 6.4 | 0.00 | 0.00 | 0.00 | 68 | 1020.5 |
| 20260901190738 | 18 | 111 | 3.2 | 4.8 | 0.00 | 0.00 | 0.00 | 67 | 1020.5 |
| 20260901190237 | 19 | 124 | 1.6 | 3.2 | 0.00 | 0.00 | 0.00 | 66 | 1020.5 |
| 20260901185738 | 19 | 121 | 0.0 | 1.6 | 0.00 | 0.00 | 0.00 | 66 | 1020.5 |
| 20260901185237 | 19 | 131 | 0.0 | 1.6 | 0.00 | 0.00 | 0.00 | 65 | 1020.4 |
| 20260901184739 | 20 | 130 | 0.0 | 3.2 | 0.00 | 0.00 | 0.00 | 64 | 1020.4 |
| 20260901184238 | 20 | 89 | 1.6 | 8.0 | 0.00 | 0.00 | 0.00 | 63 | 1020.4 |
| 20260901183738 | 20 | 121 | 3.2 | 4.8 | 0.00 | 0.00 | 0.00 | 63 | 1020.3 |
| 20260901183238 | 20 | 111 | 1.6 | 3.2 | 0.00 | 0.00 | 0.00 | 63 | 1020.2 |
| 20260901182738 | 20 | 88 | 1.6 | 4.8 | 0.00 | 0.00 | 0.00 | 62 | 1020.2 |
| 20260901182238 | 21 | 84 | 0.0 | 3.2 | 0.00 | 0.00 | 0.00 | 61 | 1020.1 |
| 20260901181739 | 21 | 78 | 1.6 | 4.8 | 0.00 | 0.00 | 0.00 | 59 | 1020.1 |
| 20260901181238 | 21 | 80 | 1.6 | 3.2 | 0.00 | 0.00 | 0.00 | 58 | 1020.1 |
| 20260901180739 | 21 | 117 | 1.6 | 4.8 | 0.00 | 0.00 | 0.00 | 58 | 1020.0 |
| 20260901180239 | 22 | 34 | 0.0 | 1.6 | 0.00 | 0.00 | 0.00 | 57 | 1020.0 |
| 20260901175737 | 22 | 33 | 0.0 | 3.2 | 0.00 | 0.00 | 0.00 | 57 | 1020.0 |
| 20260901175238 | 22 | 75 | 1.6 | 8.0 | 0.00 | 0.00 | 0.00 | 56 | 1020.0 |
| 20260901174738 | 22 | 84 | 1.6 | 3.2 | 0.00 | 0.00 | 0.00 | 55 | 1019.9 |
| 20260901174238 | 22 | 48 | 0.0 | 1.6 | 0.00 | 0.00 | 0.00 | 55 | 1019.9 |
| 20260901173737 | 23 | 15 | 0.0 | 3.2 | 0.00 | 0.00 | 0.00 | 54 | 1019.9 |
| 20260901173238 | 23 | 9 | 1.6 | 3.2 | 0.00 | 0.00 | 0.00 | 52 | 1020.0 |
| 20260901172737 | 23 | 348 | 1.6 | 3.2 | 0.00 | 0.00 | 0.00 | 52 | 1020.0 |
| 20260901172238 | 23 | 309 | 1.6 | 3.2 | 0.00 | 0.00 | 0.00 | 52 | 1019.9 |
| 20260901171738 | 23 | 348 | 1.6 | 3.2 | 0.00 | 0.00 | 0.00 | 51 | 1019.9 |
| 20260901171239 | 24 | 319 | 1.6 | 3.2 | 0.00 | 0.00 | 0.00 | 49 | 1020.0 |
| 20260901170737 | 24 | 285 | 0.0 | 3.2 | 0.00 | 0.00 | 0.00 | 49 | 1020.0 |
| 20260901170239 | 24 | 323 | 1.6 | 3.2 | 0.00 | 0.00 | 0.00 | 48 | 1020.0 |
| 20260901165739 | 24 | 329 | 1.6 | 4.8 | 0.00 | 0.00 | 0.00 | 48 | 1020.1 |
| 20260901165238 | 25 | 340 | 1.6 | 4.8 | 0.00 | 0.00 | 0.00 | 47 | 1020.1 |
| 20260901164738 | 25 | 323 | 0.0 | 3.2 | 0.00 | 0.00 | 0.00 | 47 | 1020.1 |
| 20260901164239 | 25 | 304 | 3.2 | 4.8 | 0.00 | 0.00 | 0.00 | 45 | 1020.0 |
| 20260901163739 | 25 | 360 | 0.0 | 3.2 | 0.00 | 0.00 | 0.00 | 46 | 1020.1 |
| 20260901163238 | 25 | 355 | 0.0 | 3.2 | 0.00 | 0.00 | 0.00 | 46 | 1020.0 |
| 20260901162738 | 26 | 267 | 1.6 | 4.8 | 0.00 | 0.00 | 0.00 | 47 | 1020.1 |
| 20260901162238 | 26 | 321 | 1.6 | 4.8 | 0.00 | 0.00 | 0.00 | 45 | 1020.1 |
| 20260901161739 | 26 | 99 | 0.0 | 1.6 | 0.00 | 0.00 | 0.00 | 43 | 1020.1 |
| 20260901161239 | 26 | 98 | 1.6 | 3.2 | 0.00 | 0.00 | 0.00 | 44 | 1020.1 |
| 20260901160738 | 26 | 127 | 1.6 | 4.8 | 0.00 | 0.00 | 0.00 | 41 | 1020.1 |
| 20260901160239 | 26 | 67 | 3.2 | 6.4 | 0.00 | 0.00 | 0.00 | 44 | 1020.0 |
| 20260901155738 | 26 | 45 | 3.2 | 4.8 | 0.00 | 0.00 | 0.00 | 45 | 1020.1 |
| 20260901155239 | 26 | 68 | 3.2 | 8.0 | 0.00 | 0.00 | 0.00 | 46 | 1020.2 |
| 20260901154739 | 26 | 340 | 3.2 | 6.4 | 0.00 | 0.00 | 0.00 | 43 | 1020.2 |
| 20260901154239 | 26 | 44 | 1.6 | 4.8 | 0.00 | 0.00 | 0.00 | 45 | 1020.2 |
| 20260901153739 | 27 | 333 | 1.6 | 4.8 | 0.00 | 0.00 | 0.00 | 44 | 1020.2 |
| 20260901153238 | 27 | 202 | 1.6 | 4.8 | 0.00 | 0.00 | 0.00 | 41 | 1020.2 |
| 20260901152738 | 27 | 193 | 3.2 | 6.4 | 0.00 | 0.00 | 0.00 | 41 | 1020.3 |
| 20260901152238 | 27 | 153 | 3.2 | 8.0 | 0.00 | 0.00 | 0.00 | 43 | 1020.3 |
| 20260901151737 | 27 | 5 | 1.6 | 8.0 | 0.00 | 0.00 | 0.00 | 42 | 1020.3 |
| 20260901151238 | 28 | 110 | 1.6 | 8.0 | 0.00 | 0.00 | 0.00 | 45 | 1020.3 |
| 20260901150738 | 28 | 65 | 0.0 | 6.4 | 0.00 | 0.00 | 0.00 | 43 | 1020.3 |
| 20260901150238 | 27 | 279 | 1.6 | 8.0 | 0.00 | 0.00 | 0.00 | 45 | 1020.3 |
| 20260901145738 | 27 | 104 | 3.2 | 6.4 | 0.00 | 0.00 | 0.00 | 45 | 1020.2 |
| 20260901145239 | 27 | 49 | 1.6 | 6.4 | 0.00 | 0.00 | 0.00 | 46 | 1020.3 |
| 20260901144739 | 26 | 355 | 0.0 | 8.0 | 0.00 | 0.00 | 0.00 | 45 | 1020.3 |
| 20260901144238 | 26 | 224 | 1.6 | 3.2 | 0.00 | 0.00 | 0.00 | 46 | 1020.3 |
| 20260901143738 | 26 | 215 | 1.6 | 4.8 | 0.00 | 0.00 | 0.00 | 45 | 1020.4 |
| 20260901143239 | 26 | 163 | 1.6 | 6.4 | 0.00 | 0.00 | 0.00 | 45 | 1020.5 |
| 20260901142739 | 26 | 324 | 8.0 | 11.3 | 0.00 | 0.00 | 0.00 | 45 | 1020.5 |
| 20260901142238 | 26 | 294 | 3.2 | 6.4 | 0.00 | 0.00 | 0.00 | 46 | 1020.5 |
| 20260901141738 | 25 | 230 | 1.6 | 8.0 | 0.00 | 0.00 | 0.00 | 50 | 1020.5 |
| 20260901141238 | 25 | 107 | 1.6 | 6.4 | 0.00 | 0.00 | 0.00 | 50 | 1020.5 |
| 20260901140739 | 24 | 65 | 1.6 | 3.2 | 0.00 | 0.00 | 0.00 | 54 | 1020.6 |
| 20260901140238 | 24 | 355 | 1.6 | 6.4 | 0.00 | 0.00 | 0.00 | 51 | 1020.7 |
| 20260901135738 | 25 | 26 | 3.2 | 8.0 | 0.00 | 0.00 | 0.00 | 51 | 1020.7 |
| 20260901135237 | 25 | 5 | 1.6 | 8.0 | 0.00 | 0.00 | 0.00 | 51 | 1020.7 |
| 20260901134738 | 25 | 34 | 3.2 | 8.0 | 0.00 | 0.00 | 0.00 | 50 | 1020.7 |
| 20260901134238 | 25 | 30 | 1.6 | 6.4 | 0.00 | 0.00 | 0.00 | 52 | 1020.7 |
| 20260901133739 | 25 | 331 | 3.2 | 8.0 | 0.00 | 0.00 | 0.00 | 51 | 1020.7 |
| 20260901133239 | 25 | 82 | 3.2 | 12.9 | 0.00 | 0.00 | 0.00 | 53 | 1020.9 |
| 20260901132738 | 25 | 337 | 3.2 | 9.7 | 0.00 | 0.00 | 0.00 | 52 | 1020.9 |
| 20260901132238 | 25 | 33 | 1.6 | 9.7 | 0.00 | 0.00 | 0.00 | 51 | 1020.9 |
| 20260901131738 | 25 | 63 | 3.2 | 11.3 | 0.00 | 0.00 | 0.00 | 53 | 1021.0 |
| 20260901131238 | 25 | 71 | 3.2 | 9.7 | 0.00 | 0.00 | 0.00 | 50 | 1021.0 |
| 20260901130739 | 26 | 104 | 4.8 | 14.5 | 0.00 | 0.00 | 0.00 | 50 | 1021.0 |
| 20260901130239 | 26 | 336 | 4.8 | 16.1 | 0.00 | 0.00 | 0.00 | 49 | 1021.0 |
| 20260901125737 | 26 | 342 | 4.8 | 17.7 | 0.00 | 0.03 | 0.00 | 49 | 1021.1 |
| 20260901125238 | 26 | 327 | 6.4 | 17.7 | 0.00 | 0.03 | 0.00 | 48 | 1021.2 |
| 20260901124737 | 26 | 285 | 3.2 | 14.5 | 0.00 | 0.03 | 0.00 | 43 | 1021.2 |
| 20260901124237 | 26 | 40 | 9.7 | 17.7 | 0.00 | 0.03 | 0.00 | 45 | 1021.2 |
| 20260901123737 | 26 | 100 | 3.2 | 8.0 | 0.00 | 0.03 | 0.00 | 43 | 1021.1 |
| 20260901123238 | 26 | 298 | 4.8 | 9.7 | 0.00 | 0.03 | 0.00 | 47 | 1021.2 |
| 20260901122738 | 25 | 326 | 3.2 | 8.0 | 0.00 | 0.03 | 0.00 | 51 | 1021.2 |
| 20260901122237 | 24 | 311 | 3.2 | 6.4 | 0.00 | 0.03 | 0.00 | 53 | 1021.2 |
| 20260901121738 | 24 | 323 | 3.2 | 9.7 | 0.00 | 0.03 | 0.00 | 50 | 1021.2 |
| 20260901121239 | 24 | 291 | 6.4 | 9.7 | 0.00 | 0.03 | 0.00 | 47 | 1021.3 |
| 20260901120739 | 24 | 288 | 6.4 | 8.0 | 0.00 | 0.03 | 0.00 | 49 | 1021.3 |
| 20260901120239 | 24 | 286 | 6.4 | 11.3 | 0.00 | 0.03 | 0.00 | 47 | 1021.3 |
| 20260901115739 | 24 | 275 | 3.2 | 8.0 | 0.00 | 0.03 | 0.00 | 51 | 1021.4 |
| 20260901115239 | 25 | 344 | 3.2 | 6.4 | 0.00 | 0.03 | 0.00 | 48 | 1021.4 |
| 20260901114738 | 25 | 198 | 6.4 | 8.0 | 0.00 | 0.03 | 0.00 | 50 | 1021.3 |
| 20260901114238 | 25 | 290 | 3.2 | 4.8 | 0.00 | 0.03 | 0.00 | 50 | 1021.4 |
| 20260901113739 | 25 | 316 | 3.2 | 6.4 | 0.00 | 0.03 | 0.00 | 50 | 1021.3 |
| 20260901113239 | 25 | 317 | 4.8 | 12.9 | 0.00 | 0.03 | 0.00 | 50 | 1021.3 |
| 20260901112737 | 25 | 334 | 4.8 | 8.0 | 0.00 | 0.03 | 0.00 | 46 | 1021.3 |
| 20260901112238 | 25 | 257 | 4.8 | 12.9 | 0.00 | 0.03 | 0.00 | 44 | 1021.4 |
| 20260901111737 | 26 | 329 | 3.2 | 9.7 | 0.00 | 0.03 | 0.00 | 47 | 1021.4 |
| 20260901111237 | 26 | 225 | 3.2 | 8.0 | 0.00 | 0.03 | 0.00 | 47 | 1021.4 |
| 20260901110738 | 26 | 63 | 1.6 | 6.4 | 0.00 | 0.03 | 0.00 | 49 | 1021.5 |
| 20260901110237 | 26 | 148 | 0.0 | 3.2 | 0.00 | 0.03 | 0.00 | 48 | 1021.5 |
| 20260901105738 | 26 | 338 | 3.2 | 6.4 | 0.00 | 0.03 | 0.00 | 47 | 1021.5 |
| 20260901105237 | 26 | 336 | 3.2 | 6.4 | 0.00 | 0.03 | 0.00 | 51 | 1021.5 |
| 20260901104739 | 26 | 317 | 1.6 | 4.8 | 0.00 | 0.03 | 0.00 | 51 | 1021.6 |
| 20260901104238 | 26 | 334 | 6.4 | 11.3 | 0.00 | 0.03 | 0.00 | 48 | 1021.7 |
| 20260901103738 | 25 | 261 | 4.8 | 11.3 | 0.00 | 0.03 | 0.00 | 50 | 1021.8 |
| 20260901103238 | 25 | 319 | 4.8 | 9.7 | 0.00 | 0.03 | 0.00 | 50 | 1021.8 |
| 20260901102738 | 25 | 207 | 4.8 | 6.4 | 0.00 | 0.03 | 0.00 | 50 | 1021.7 |
| 20260901102239 | 25 | 162 | 3.2 | 4.8 | 0.00 | 0.03 | 0.00 | 50 | 1021.8 |
| 20260901101738 | 24 | 255 | 3.2 | 8.0 | 0.00 | 0.03 | 0.00 | 54 | 1021.8 |
| 20260901101239 | 24 | 187 | 3.2 | 9.7 | 0.00 | 0.03 | 0.00 | 54 | 1021.9 |
| 20260901100739 | 24 | 180 | 3.2 | 8.0 | 0.00 | 0.03 | 0.00 | 58 | 1021.9 |
| 20260901100238 | 23 | 201 | 4.8 | 8.0 | 0.00 | 0.03 | 0.00 | 54 | 1021.9 |
| 20260901095738 | 23 | 222 | 3.2 | 9.7 | 0.00 | 0.03 | 0.00 | 57 | 1021.9 |
| 20260901095237 | 23 | 150 | 1.6 | 4.8 | 0.00 | 0.03 | 0.00 | 59 | 1021.9 |
| 20260901094737 | 23 | 128 | 1.6 | 4.8 | 0.00 | 0.03 | 0.00 | 57 | 1022.0 |
| 20260901094238 | 23 | 87 | 1.6 | 9.7 | 0.00 | 0.03 | 0.00 | 56 | 1022.0 |
| 20260901093738 | 23 | 219 | 6.4 | 11.3 | 0.00 | 0.03 | 0.00 | 58 | 1022.1 |
| 20260901093239 | 22 | 284 | 0.0 | 6.4 | 0.00 | 0.03 | 0.00 | 58 | 1022.1 |
| 20260901092738 | 22 | 165 | 3.2 | 12.9 | 0.00 | 0.03 | 0.00 | 61 | 1022.0 |
| 20260901092238 | 22 | 240 | 0.0 | 9.7 | 0.00 | 0.03 | 0.00 | 60 | 1022.1 |
| 20260901091738 | 22 | 220 | 3.2 | 8.0 | 0.00 | 0.03 | 0.00 | 59 | 1022.0 |
| 20260901091238 | 22 | 250 | 6.4 | 9.7 | 0.00 | 0.03 | 0.00 | 62 | 1022.1 |
| 20260901090738 | 22 | 269 | 3.2 | 6.4 | 0.00 | 0.03 | 0.00 | 62 | 1022.0 |
| 20260901090239 | 22 | 265 | 1.6 | 6.4 | 0.00 | 0.03 | 0.00 | 65 | 1022.0 |
| 20260901085738 | 21 | 344 | 4.8 | 6.4 | 0.00 | 0.03 | 0.00 | 67 | 1022.0 |
| 20260901085238 | 21 | 156 | 1.6 | 4.8 | 0.00 | 0.03 | 0.00 | 65 | 1022.0 |
| 20260901084738 | 21 | 223 | 3.2 | 4.8 | 0.00 | 0.03 | 0.00 | 67 | 1022.0 |
| 20260901084237 | 21 | 284 | 1.6 | 4.8 | 0.00 | 0.03 | 0.00 | 69 | 1022.0 |
| 20260901083738 | 21 | 71 | 1.6 | 4.8 | 0.00 | 0.03 | 0.00 | 70 | 1022.0 |
| 20260901083237 | 21 | 189 | 1.6 | 3.2 | 0.00 | 0.03 | 0.00 | 69 | 1022.0 |
| 20260901082738 | 21 | 211 | 1.6 | 3.2 | 0.00 | 0.03 | 0.00 | 70 | 1022.0 |
| 20260901082237 | 21 | 118 | 3.2 | 4.8 | 0.00 | 0.03 | 0.00 | 71 | 1022.1 |
| 20260901081739 | 20 | 103 | 3.2 | 8.0 | 0.00 | 0.03 | 0.00 | 72 | 1022.1 |
| 20260901081239 | 20 | 215 | 0.0 | 3.2 | 0.00 | 0.03 | 0.00 | 71 | 1022.1 |
| 20260901080739 | 20 | 258 | 1.6 | 6.4 | 0.00 | 0.03 | 0.00 | 73 | 1022.1 |
| 20260901080239 | 20 | 286 | 1.6 | 8.0 | 0.00 | 0.03 | 0.00 | 74 | 1022.1 |
| 20260901075739 | 19 | 225 | 6.4 | 8.0 | 0.00 | 0.03 | 0.00 | 75 | 1022.1 |
| 20260901075238 | 19 | 321 | 3.2 | 6.4 | 0.00 | 0.03 | 0.00 | 77 | 1022.0 |
| 20260901074739 | 18 | 157 | 1.6 | 6.4 | 0.00 | 0.03 | 0.00 | 78 | 1022.0 |
| 20260901074237 | 18 | 229 | 4.8 | 8.0 | 0.00 | 0.03 | 0.00 | 78 | 1022.0 |
| 20260901073739 | 18 | 219 | 3.2 | 4.8 | 0.00 | 0.03 | 0.00 | 80 | 1021.9 |
| 20260901073238 | 18 | 181 | 4.8 | 9.7 | 0.00 | 0.03 | 0.00 | 79 | 1021.8 |
| 20260901072738 | 18 | 240 | 3.2 | 8.0 | 0.00 | 0.03 | 0.00 | 81 | 1021.8 |
| 20260901072239 | 17 | 223 | 1.6 | 8.0 | 0.00 | 0.03 | 0.00 | 83 | 1021.8 |
| 20260901071738 | 17 | 158 | 4.8 | 8.0 | 0.00 | 0.03 | 0.00 | 84 | 1021.8 |
| 20260901071238 | 17 | 245 | 3.2 | 6.4 | 0.00 | 0.03 | 0.00 | 86 | 1021.9 |
| 20260901070737 | 16 | 223 | 0.0 | 1.6 | 0.00 | 0.03 | 0.00 | 87 | 1021.9 |
| 20260901070238 | 16 | 125 | 0.0 | 3.2 | 0.00 | 0.03 | 0.00 | 88 | 1021.9 |
| 20260901065739 | 16 | 199 | 0.0 | 3.2 | 0.00 | 0.03 | 0.00 | 89 | 1021.9 |
| 20260901065238 | 16 | 178 | 0.0 | 3.2 | 0.00 | 0.03 | 0.00 | 89 | 1021.9 |
| 20260901064738 | 15 | 196 | 0.0 | 1.6 | 0.00 | 0.03 | 0.00 | 89 | 1021.9 |
| 20260901064238 | 15 | 133 | 0.0 | 1.6 | 0.00 | 0.03 | 0.00 | 90 | 1021.8 |
| 20260901063738 | 15 | 158 | 0.0 | 1.6 | 0.00 | 0.03 | 0.00 | 90 | 1021.8 |
| 20260901063239 | 15 | 144 | 0.0 | 1.6 | 0.00 | 0.03 | 0.00 | 90 | 1021.8 |
| 20260901062739 | 14 | 150 | 0.0 | 0.0 | 0.00 | 0.03 | 0.00 | 89 | 1021.8 |
| 20260901062238 | 14 | 157 | 0.0 | 0.0 | 0.00 | 0.03 | 0.00 | 89 | 1021.8 |
| 20260901061738 | 13 | 157 | 0.0 | 0.0 | 0.00 | 0.03 | 0.00 | 89 | 1021.8 |
| 20260901061239 | 13 | 157 | 0.0 | 0.0 | 0.00 | 0.03 | 0.00 | 89 | 1021.8 |
| 20260901060738 | 13 | 163 | 0.0 | 0.0 | 0.00 | 0.03 | 0.00 | 88 | 1021.8 |
| 20260901060238 | 13 | 167 | 0.0 | 0.0 | 0.00 | 0.03 | 0.00 | 88 | 1021.7 |
| 20260901055737 | 13 | 167 | 0.0 | 0.0 | 0.00 | 0.03 | 0.00 | 88 | 1021.6 |
| 20260901055238 | 13 | 169 | 0.0 | 1.6 | 0.00 | 0.03 | 0.00 | 88 | 1021.6 |
| 20260901054738 | 13 | 143 | 0.0 | 1.6 | 0.00 | 0.03 | 0.00 | 88 | 1021.5 |
| 20260901054238 | 13 | 125 | 0.0 | 0.0 | 0.00 | 0.03 | 0.00 | 88 | 1021.5 |
| 20260901053737 | 13 | 121 | 0.0 | 0.0 | 0.00 | 0.03 | 0.00 | 88 | 1021.4 |
| 20260901053237 | 13 | 121 | 0.0 | 1.6 | 0.00 | 0.03 | 0.00 | 87 | 1021.4 |
| 20260901052738 | 13 | 123 | 0.0 | 1.6 | 0.00 | 0.03 | 0.00 | 87 | 1021.4 |
| 20260901052238 | 13 | 128 | 0.0 | 1.6 | 0.00 | 0.03 | 0.00 | 87 | 1021.4 |
| 20260901051738 | 13 | 128 | 0.0 | 1.6 | 0.00 | 0.03 | 0.00 | 87 | 1021.4 |
| 20260901051238 | 13 | 128 | 0.0 | 1.6 | 0.00 | 0.03 | 0.00 | 87 | 1021.3 |
| 20260901050738 | 13 | 123 | 0.0 | 0.0 | 0.00 | 0.03 | 0.00 | 87 | 1021.4 |
| 20260901050239 | 13 | 123 | 0.0 | 1.6 | 0.00 | 0.03 | 0.00 | 87 | 1021.3 |
| 20260901045739 | 13 | 131 | 0.0 | 3.2 | 0.00 | 0.03 | 0.00 | 87 | 1021.4 |
| 20260901045238 | 13 | 161 | 0.0 | 3.2 | 0.00 | 0.03 | 0.00 | 87 | 1021.3 |
| 20260901044738 | 14 | 161 | 0.0 | 1.6 | 0.00 | 0.03 | 0.00 | 87 | 1021.3 |
| 20260901044239 | 14 | 157 | 0.0 | 1.6 | 0.00 | 0.03 | 0.00 | 87 | 1021.3 |
| 20260901043738 | 14 | 161 | 1.6 | 3.2 | 0.00 | 0.03 | 0.00 | 87 | 1021.2 |
| 20260901043238 | 14 | 164 | 0.0 | 3.2 | 0.00 | 0.03 | 0.00 | 86 | 1021.2 |
| 20260901042738 | 14 | 171 | 1.6 | 3.2 | 0.00 | 0.03 | 0.00 | 86 | 1021.3 |
| 20260901042238 | 14 | 171 | 0.0 | 0.0 | 0.00 | 0.03 | 0.00 | 86 | 1021.3 |
| 20260901041738 | 15 | 171 | 0.0 | 0.0 | 0.00 | 0.03 | 0.00 | 86 | 1021.2 |
| 20260901041239 | 15 | 171 | 0.0 | 0.0 | 0.00 | 0.03 | 0.00 | 86 | 1021.2 |
| 20260901040738 | 15 | 170 | 0.0 | 0.0 | 0.00 | 0.03 | 0.00 | 86 | 1021.2 |
| 20260901040239 | 15 | 175 | 0.0 | 0.0 | 0.00 | 0.03 | 0.00 | 86 | 1021.2 |
| 20260901035738 | 15 | 174 | 0.0 | 1.6 | 0.00 | 0.03 | 0.00 | 87 | 1021.1 |
| 20260901035240 | 15 | 155 | 3.2 | 4.8 | 0.00 | 0.03 | 0.00 | 87 | 1021.1 |
| 20260901034738 | 15 | 150 | 0.0 | 3.2 | 0.00 | 0.03 | 0.00 | 87 | 1021.1 |
| 20260901034237 | 15 | 158 | 1.6 | 3.2 | 0.00 | 0.03 | 0.00 | 86 | 1021.0 |
| 20260901033737 | 15 | 169 | 1.6 | 3.2 | 0.00 | 0.03 | 0.00 | 86 | 1021.0 |
| 20260901033237 | 15 | 248 | 0.0 | 1.6 | 0.00 | 0.03 | 0.00 | 86 | 1021.0 |
| 20260901032737 | 15 | 248 | 0.0 | 1.6 | 0.00 | 0.03 | 0.00 | 86 | 1021.0 |
| 20260901032237 | 15 | 294 | 0.0 | 0.0 | 0.00 | 0.03 | 0.00 | 86 | 1021.0 |
| 20260901031738 | 15 | 298 | 0.0 | 1.6 | 0.00 | 0.03 | 0.00 | 86 | 1020.9 |
| 20260901031012 | 15 | 294 | 0.0 | 3.2 | 0.00 | 0.03 | 0.00 | 86 | 1020.9 |
| 20260901030511 | 15 | 34 | 0.0 | 0.0 | 0.00 | 0.03 | 0.00 | 86 | 1020.9 |
| 20260901030012 | 15 | 38 | 0.0 | 1.6 | 0.00 | 0.03 | 0.00 | 86 | 1020.9 |
| 20260901025513 | 15 | 53 | 0.0 | 4.8 | 0.00 | 0.03 | 0.00 | 86 | 1021.0 |
| 20260901025011 | 15 | 18 | 0.0 | 3.2 | 0.00 | 0.03 | 0.00 | 86 | 1020.9 |
| 20260901024513 | 15 | 115 | 0.0 | 1.6 | 0.00 | 0.03 | 0.00 | 86 | 1020.9 |
| 20260901024013 | 15 | 115 | 0.0 | 0.0 | 0.00 | 0.03 | 0.00 | 86 | 1020.9 |
| 20260901023513 | 15 | 115 | 0.0 | 0.0 | 0.00 | 0.03 | 0.00 | 86 | 1020.9 |
| 20260901023012 | 15 | 115 | 0.0 | 0.0 | 0.00 | 0.03 | 0.00 | 86 | 1020.8 |
| 20260901022513 | 15 | 115 | 0.0 | 1.6 | 0.00 | 0.03 | 0.00 | 86 | 1020.9 |
| 20260901022012 | 15 | 115 | 0.0 | 1.6 | 0.00 | 0.03 | 0.00 | 86 | 1020.9 |
| 20260901021512 | 15 | 115 | 0.0 | 0.0 | 0.00 | 0.03 | 0.00 | 86 | 1020.9 |
| 20260901021012 | 15 | 115 | 0.0 | 0.0 | 0.00 | 0.03 | 0.00 | 86 | 1020.9 |
| 20260901020512 | 15 | 115 | 0.0 | 0.0 | 0.00 | 0.03 | 0.00 | 85 | 1020.9 |
| 20260901020013 | 15 | 115 | 0.0 | 0.0 | 0.00 | 0.03 | 0.00 | 85 | 1020.9 |
| 20260901015512 | 16 | 115 | 0.0 | 1.6 | 0.00 | 0.03 | 0.00 | 85 | 1020.9 |
| 20260901015012 | 16 | 111 | 0.0 | 0.0 | 0.00 | 0.03 | 0.00 | 85 | 1020.9 |
| 20260901014512 | 16 | 111 | 0.0 | 0.0 | 0.00 | 0.03 | 0.00 | 85 | 1020.9 |
| 20260901014012 | 16 | 111 | 1.6 | 3.2 | 0.00 | 0.03 | 0.00 | 86 | 1020.9 |
| 20260901013511 | 16 | 127 | 1.6 | 3.2 | 0.00 | 0.03 | 0.00 | 86 | 1020.9 |
| 20260901013013 | 16 | 174 | 1.6 | 3.2 | 0.00 | 0.03 | 0.00 | 86 | 1020.9 |
| 20260901012513 | 16 | 171 | 1.6 | 4.8 | 0.00 | 0.03 | 0.00 | 86 | 1020.9 |
| 20260901012012 | 15 | 176 | 1.6 | 4.8 | 0.00 | 0.03 | 0.00 | 86 | 1021.0 |
| 20260901011512 | 15 | 163 | 1.6 | 3.2 | 0.00 | 0.03 | 0.00 | 86 | 1020.9 |
| 20260901011012 | 15 | 118 | 0.0 | 1.6 | 0.00 | 0.03 | 0.00 | 86 | 1021.0 |
| 20260901010512 | 15 | 116 | 0.0 | 1.6 | 0.00 | 0.03 | 0.00 | 85 | 1020.9 |
| 20260901010013 | 15 | 117 | 0.0 | 1.6 | 0.00 | 0.03 | 0.00 | 85 | 1020.8 |
| 20260901005511 | 15 | 167 | 0.0 | 1.6 | 0.00 | 0.03 | 0.00 | 85 | 1020.8 |
| 20260901005013 | 15 | 175 | 1.6 | 3.2 | 0.00 | 0.03 | 0.00 | 85 | 1020.7 |
| 20260901004513 | 15 | 130 | 1.6 | 3.2 | 0.00 | 0.03 | 0.00 | 85 | 1020.8 |
| 20260901004012 | 15 | 144 | 1.6 | 3.2 | 0.00 | 0.03 | 0.00 | 85 | 1020.7 |
| 20260901003513 | 15 | 139 | 0.0 | 1.6 | 0.00 | 0.03 | 0.00 | 85 | 1020.8 |
| 20260901003011 | 15 | 139 | 0.0 | 1.6 | 0.00 | 0.03 | 0.00 | 85 | 1020.8 |
| 20260901002511 | 15 | 139 | 0.0 | 0.0 | 0.00 | 0.03 | 0.00 | 85 | 1020.8 |
| 20260901002011 | 15 | 140 | 0.0 | 1.6 | 0.00 | 0.03 | 0.00 | 85 | 1020.8 |
| 20260901001512 | 15 | 139 | 1.6 | 1.6 | 0.00 | 0.03 | 0.00 | 85 | 1020.9 |
| 20260901001012 | 15 | 169 | 0.0 | 3.2 | 0.00 | 0.03 | 0.00 | 85 | 1020.9 |
| 20260901000511 | 15 | 166 | 3.2 | 4.8 | 0.00 | 0.03 | 0.00 | 85 | 1020.9 |
| 20260901000011 | 15 | 157 | 1.6 | 3.2 | 0.00 | 0.03 | 0.00 | 84 | 1020.8 |
| 20260831235512 | 15 | 154 | 1.6 | 3.2 | 0.00 | 0.18 | 0.00 | 84 | 1020.8 |
| 20260831235012 | 15 | 166 | 1.6 | 4.8 | 0.00 | 0.18 | 0.00 | 84 | 1020.9 |
| 20260831234512 | 15 | 168 | 3.2 | 3.2 | 0.00 | 0.18 | 0.00 | 83 | 1020.8 |
| 20260831234012 | 15 | 144 | 0.0 | 3.2 | 0.00 | 0.18 | 0.00 | 82 | 1020.8 |
| 20260831233511 | 15 | 102 | 0.0 | 1.6 | 0.00 | 0.18 | 0.00 | 82 | 1020.8 |
| 20260831233012 | 15 | 65 | 0.0 | 1.6 | 0.00 | 0.18 | 0.00 | 82 | 1020.7 |
| 20260831232513 | 15 | 65 | 0.0 | 1.6 | 0.00 | 0.18 | 0.00 | 82 | 1020.7 |
| 20260831232012 | 15 | 65 | 0.0 | 1.6 | 0.00 | 0.18 | 0.00 | 82 | 1020.6 |
| 20260831231512 | 15 | 65 | 0.0 | 0.0 | 0.00 | 0.18 | 0.00 | 81 | 1020.6 |
| 20260831231013 | 15 | 65 | 0.0 | 1.6 | 0.00 | 0.18 | 0.00 | 81 | 1020.6 |
| 20260831230512 | 15 | 65 | 0.0 | 0.0 | 0.00 | 0.18 | 0.00 | 80 | 1020.6 |
| 20260831230012 | 16 | 65 | 0.0 | 1.6 | 0.00 | 0.18 | 0.00 | 80 | 1020.6 |
| 20260831225512 | 16 | 65 | 0.0 | 1.6 | 0.00 | 0.23 | 0.00 | 80 | 1020.6 |